| time (UTC) | temp C | wind direction | speed KPH | gust KPH | rain 1hr cm | rain 24hr cm | rain mn cm | humidity % | barometer mb |
| 20260507185320 | 18 | 312 | 8.0 | 16.1 | 0.00 | 0.03 | 0.00 | 42 | 1008.1 |
| 20260507184832 | 18 | 9 | 6.4 | 14.5 | 0.00 | 0.03 | 0.00 | 42 | 1008.1 |
| 20260507184323 | 18 | 115 | 4.8 | 19.3 | 0.00 | 0.03 | 0.00 | 43 | 1008.2 |
| 20260507183815 | 18 | 159 | 8.0 | 16.1 | 0.00 | 0.03 | 0.00 | 45 | 1008.2 |
| 20260507183328 | 17 | 292 | 6.4 | 16.1 | 0.00 | 0.03 | 0.00 | 41 | 1008.3 |
| 20260507182824 | 17 | 110 | 6.4 | 17.7 | 0.00 | 0.03 | 0.00 | 43 | 1008.3 |
| 20260507182316 | 17 | 360 | 8.0 | 17.7 | 0.00 | 0.03 | 0.00 | 46 | 1008.2 |
| 20260507181828 | 17 | 267 | 4.8 | 17.7 | 0.00 | 0.03 | 0.00 | 47 | 1008.3 |
| 20260507181320 | 17 | 277 | 4.8 | 16.1 | 0.00 | 0.03 | 0.00 | 45 | 1008.4 |
| 20260507180832 | 17 | 285 | 4.8 | 14.5 | 0.00 | 0.03 | 0.00 | 49 | 1008.4 |
| 20260507180323 | 17 | 13 | 4.8 | 11.3 | 0.00 | 0.03 | 0.00 | 48 | 1008.5 |
| 20260507175833 | 16 | 94 | 1.6 | 17.7 | 0.00 | 0.03 | 0.00 | 47 | 1008.6 |
| 20260507175325 | 16 | 282 | 9.7 | 17.7 | 0.00 | 0.03 | 0.00 | 49 | 1008.7 |
| 20260507174842 | 16 | 311 | 3.2 | 17.7 | 0.00 | 0.03 | 0.00 | 50 | 1008.8 |
| 20260507174313 | 16 | 279 | 11.3 | 17.7 | 0.00 | 0.03 | 0.00 | 49 | 1008.9 |
| 20260507173826 | 16 | 14 | 1.6 | 16.1 | 0.00 | 0.03 | 0.00 | 46 | 1009.0 |
| 20260507173317 | 16 | 12 | 11.3 | 16.1 | 0.00 | 0.03 | 0.00 | 51 | 1009.1 |
| 20260507172829 | 16 | 313 | 3.2 | 19.3 | 0.00 | 0.03 | 0.00 | 51 | 1009.2 |
| 20260507172321 | 16 | 28 | 8.0 | 19.3 | 0.00 | 0.03 | 0.00 | 49 | 1009.2 |
| 20260507171813 | 16 | 18 | 3.2 | 11.3 | 0.00 | 0.03 | 0.00 | 49 | 1009.4 |
| 20260507171325 | 16 | 155 | 8.0 | 19.3 | 0.00 | 0.03 | 0.00 | 50 | 1009.5 |
| 20260507170837 | 16 | 290 | 8.0 | 19.3 | 0.00 | 0.03 | 0.00 | 51 | 1009.5 |
| 20260507170331 | 15 | 296 | 8.0 | 12.9 | 0.00 | 0.03 | 0.00 | 53 | 1009.6 |
| 20260507165824 | 15 | 24 | 4.8 | 19.3 | 0.00 | 0.03 | 0.00 | 49 | 1009.7 |
| 20260507165316 | 15 | 309 | 12.9 | 20.9 | 0.00 | 0.03 | 0.00 | 50 | 1009.9 |
| 20260507164828 | 15 | 300 | 12.9 | 20.9 | 0.00 | 0.03 | 0.00 | 54 | 1009.8 |
| 20260507164320 | 15 | 296 | 11.3 | 17.7 | 0.00 | 0.03 | 0.00 | 58 | 1009.8 |
| 20260507163853 | 15 | 9 | 6.4 | 14.5 | 0.00 | 0.03 | 0.00 | 56 | 1009.9 |
| 20260507163324 | 15 | 309 | 8.0 | 14.5 | 0.00 | 0.03 | 0.00 | 53 | 1010.0 |
| 20260507162816 | 15 | 170 | 4.8 | 16.1 | 0.00 | 0.03 | 0.00 | 51 | 1010.2 |
| 20260507162328 | 15 | 153 | 8.0 | 16.1 | 0.00 | 0.03 | 0.00 | 52 | 1010.2 |
| 20260507161824 | 14 | 287 | 4.8 | 17.7 | 0.00 | 0.03 | 0.00 | 58 | 1010.1 |
| 20260507161336 | 14 | 303 | 12.9 | 22.5 | 0.00 | 0.03 | 0.00 | 51 | 1010.2 |
| 20260507160847 | 14 | 277 | 6.4 | 22.5 | 0.00 | 0.03 | 0.00 | 53 | 1010.2 |
| 20260507160318 | 15 | 272 | 11.3 | 20.9 | 0.00 | 0.03 | 0.00 | 53 | 1010.4 |
| 20260507155828 | 14 | 311 | 4.8 | 17.7 | 0.00 | 0.03 | 0.00 | 57 | 1010.5 |
| 20260507155320 | 14 | 297 | 6.4 | 14.5 | 0.00 | 0.03 | 0.00 | 55 | 1010.6 |
| 20260507154852 | 13 | 295 | 4.8 | 12.9 | 0.00 | 0.03 | 0.00 | 55 | 1010.7 |
| 20260507154323 | 13 | 150 | 6.4 | 16.1 | 0.00 | 0.03 | 0.00 | 54 | 1010.7 |
| 20260507153835 | 13 | 292 | 8.0 | 19.3 | 0.00 | 0.03 | 0.00 | 55 | 1010.8 |
| 20260507153327 | 13 | 306 | 12.9 | 19.3 | 0.00 | 0.03 | 0.00 | 55 | 1010.8 |
| 20260507152839 | 13 | 304 | 14.5 | 19.3 | 0.00 | 0.03 | 0.00 | 58 | 1010.8 |
| 20260507152313 | 13 | 289 | 11.3 | 16.1 | 0.00 | 0.03 | 0.00 | 54 | 1010.7 |
| 20260507151826 | 12 | 298 | 8.0 | 19.3 | 0.00 | 0.03 | 0.00 | 56 | 1010.9 |
| 20260507151317 | 12 | 300 | 11.3 | 20.9 | 0.00 | 0.03 | 0.00 | 52 | 1011.0 |
| 20260507150850 | 12 | 306 | 12.9 | 20.9 | 0.00 | 0.03 | 0.00 | 54 | 1010.9 |
| 20260507150342 | 12 | 276 | 9.7 | 20.9 | 0.00 | 0.03 | 0.00 | 53 | 1011.1 |
| 20260507145853 | 12 | 288 | 12.9 | 22.5 | 0.00 | 0.03 | 0.00 | 54 | 1011.2 |
| 20260507145323 | 12 | 284 | 9.7 | 22.5 | 0.00 | 0.03 | 0.00 | 53 | 1011.3 |
| 20260507144836 | 13 | 308 | 11.3 | 17.7 | 0.00 | 0.03 | 0.00 | 56 | 1011.4 |
| 20260507144327 | 12 | 9 | 9.7 | 14.5 | 0.00 | 0.03 | 0.00 | 60 | 1011.6 |
| 20260507143819 | 12 | 95 | 4.8 | 9.7 | 0.00 | 0.03 | 0.00 | 60 | 1011.7 |
| 20260507143353 | 12 | 293 | 6.4 | 12.9 | 0.00 | 0.03 | 0.00 | 57 | 1011.8 |
| 20260507142828 | 12 | 290 | 9.7 | 14.5 | 0.00 | 0.03 | 0.00 | 54 | 1011.9 |
| 20260507142340 | 12 | 278 | 6.4 | 19.3 | 0.00 | 0.03 | 0.00 | 58 | 1011.8 |
| 20260507141832 | 12 | 26 | 9.7 | 19.3 | 0.00 | 0.03 | 0.00 | 58 | 1011.8 |
| 20260507141323 | 11 | 273 | 8.0 | 14.5 | 0.00 | 0.03 | 0.00 | 59 | 1011.9 |
| 20260507140815 | 11 | 19 | 6.4 | 12.9 | 0.00 | 0.03 | 0.00 | 60 | 1011.9 |
| 20260507140347 | 11 | 13 | 6.4 | 14.5 | 0.00 | 0.03 | 0.00 | 58 | 1012.0 |
| 20260507135815 | 11 | 305 | 9.7 | 16.1 | 0.00 | 0.03 | 0.00 | 61 | 1012.1 |
| 20260507135328 | 11 | 249 | 9.7 | 16.1 | 0.00 | 0.03 | 0.00 | 59 | 1012.1 |
| 20260507134819 | 11 | 281 | 9.7 | 19.3 | 0.00 | 0.03 | 0.00 | 57 | 1012.1 |
| 20260507134316 | 11 | 296 | 11.3 | 19.3 | 0.00 | 0.05 | 0.00 | 58 | 1012.2 |
| 20260507133828 | 11 | 287 | 12.9 | 16.1 | 0.00 | 0.05 | 0.00 | 58 | 1012.2 |
| 20260507133320 | 11 | 313 | 9.7 | 16.1 | 0.00 | 0.05 | 0.00 | 59 | 1012.4 |
| 20260507132832 | 11 | 282 | 9.7 | 17.7 | 0.00 | 0.05 | 0.00 | 55 | 1012.4 |
| 20260507132324 | 11 | 284 | 11.3 | 17.7 | 0.00 | 0.05 | 0.00 | 55 | 1012.4 |
| 20260507131816 | 11 | 290 | 11.3 | 17.7 | 0.00 | 0.05 | 0.00 | 56 | 1012.4 |
| 20260507131328 | 11 | 277 | 8.0 | 17.7 | 0.00 | 0.05 | 0.00 | 59 | 1012.4 |
| 20260507130819 | 10 | 281 | 8.0 | 17.7 | 0.00 | 0.05 | 0.00 | 61 | 1012.3 |
| 20260507130314 | 10 | 296 | 9.7 | 17.7 | 0.00 | 0.05 | 0.00 | 62 | 1012.3 |
| 20260507125825 | 10 | 277 | 11.3 | 17.7 | 0.00 | 0.05 | 0.00 | 58 | 1012.4 |
| 20260507125316 | 10 | 286 | 8.0 | 17.7 | 0.00 | 0.05 | 0.00 | 61 | 1012.5 |
| 20260507124828 | 10 | 295 | 8.0 | 17.7 | 0.00 | 0.05 | 0.00 | 62 | 1012.5 |
| 20260507124339 | 10 | 273 | 11.3 | 17.7 | 0.00 | 0.13 | 0.00 | 60 | 1012.4 |
| 20260507123830 | 10 | 302 | 6.4 | 19.3 | 0.00 | 0.13 | 0.00 | 62 | 1012.5 |
| 20260507123321 | 10 | 270 | 9.7 | 19.3 | 0.00 | 0.13 | 0.00 | 60 | 1012.4 |
| 20260507122813 | 10 | 277 | 6.4 | 11.3 | 0.00 | 0.13 | 0.00 | 64 | 1012.4 |
| 20260507122326 | 10 | 292 | 4.8 | 12.9 | 0.00 | 0.13 | 0.00 | 66 | 1012.4 |
| 20260507121822 | 10 | 311 | 4.8 | 12.9 | 0.00 | 0.13 | 0.00 | 68 | 1012.5 |
| 20260507121313 | 9 | 303 | 4.8 | 11.3 | 0.00 | 0.13 | 0.00 | 67 | 1012.4 |
| 20260507120826 | 9 | 311 | 4.8 | 8.0 | 0.00 | 0.13 | 0.00 | 71 | 1012.4 |
| 20260507120318 | 9 | 309 | 3.2 | 4.8 | 0.00 | 0.13 | 0.00 | 72 | 1012.4 |
| 20260507115827 | 9 | 15 | 1.6 | 4.8 | 0.00 | 0.13 | 0.00 | 74 | 1012.4 |
| 20260507115318 | 9 | 311 | 1.6 | 4.8 | 0.00 | 0.13 | 0.00 | 74 | 1012.3 |
| 20260507114831 | 9 | 311 | 1.6 | 8.0 | 0.00 | 0.13 | 0.00 | 74 | 1012.3 |
| 20260507114342 | 9 | 298 | 3.2 | 8.0 | 0.00 | 0.18 | 0.00 | 74 | 1012.3 |
| 20260507113813 | 9 | 302 | 3.2 | 6.4 | 0.00 | 0.18 | 0.00 | 73 | 1012.2 |
| 20260507113345 | 9 | 305 | 1.6 | 8.0 | 0.00 | 0.18 | 0.00 | 72 | 1012.2 |
| 20260507112820 | 8 | 293 | 4.8 | 8.0 | 0.00 | 0.18 | 0.00 | 73 | 1012.1 |
| 20260507112332 | 8 | 290 | 3.2 | 6.4 | 0.00 | 0.18 | 0.00 | 72 | 1012.1 |
| 20260507111824 | 8 | 307 | 4.8 | 8.0 | 0.00 | 0.18 | 0.00 | 73 | 1012.0 |
| 20260507111316 | 8 | 304 | 4.8 | 8.0 | 0.00 | 0.18 | 0.00 | 72 | 1012.0 |
| 20260507110828 | 8 | 285 | 6.4 | 9.7 | 0.00 | 0.18 | 0.00 | 73 | 1011.9 |
| 20260507110320 | 8 | 298 | 4.8 | 8.0 | 0.00 | 0.18 | 0.00 | 73 | 1012.0 |
| 20260507105830 | 8 | 304 | 4.8 | 8.0 | 0.00 | 0.18 | 0.00 | 75 | 1012.1 |
| 20260507105322 | 8 | 282 | 4.8 | 12.9 | 0.00 | 0.18 | 0.00 | 75 | 1012.0 |
| 20260507104819 | 9 | 306 | 8.0 | 12.9 | 0.00 | 0.18 | 0.00 | 75 | 1011.9 |
| 20260507104331 | 9 | 300 | 9.7 | 12.9 | 0.00 | 0.18 | 0.00 | 75 | 1011.9 |
| 20260507103841 | 9 | 311 | 4.8 | 9.7 | 0.00 | 0.18 | 0.00 | 79 | 1011.8 |
| 20260507103332 | 9 | 306 | 3.2 | 4.8 | 0.00 | 0.18 | 0.00 | 81 | 1011.8 |
| 20260507102824 | 9 | 14 | 0.0 | 6.4 | 0.00 | 0.18 | 0.00 | 81 | 1011.7 |
| 20260507102337 | 9 | 303 | 3.2 | 6.4 | 0.00 | 0.18 | 0.00 | 80 | 1011.6 |
| 20260507101828 | 9 | 309 | 3.2 | 6.4 | 0.00 | 0.18 | 0.00 | 79 | 1011.3 |
| 20260507101320 | 9 | 304 | 4.8 | 6.4 | 0.00 | 0.18 | 0.00 | 78 | 1011.2 |
| 20260507100851 | 9 | 296 | 3.2 | 6.4 | 0.00 | 0.18 | 0.00 | 78 | 1011.2 |
| 20260507100322 | 9 | 290 | 3.2 | 9.7 | 0.00 | 0.18 | 0.00 | 78 | 1011.3 |
| 20260507095817 | 9 | 290 | 1.6 | 8.0 | 0.00 | 0.18 | 0.00 | 78 | 1011.3 |
| 20260507095349 | 9 | 293 | 4.8 | 8.0 | 0.00 | 0.18 | 0.00 | 78 | 1011.3 |
| 20260507094820 | 9 | 292 | 3.2 | 9.7 | 0.00 | 0.18 | 0.00 | 79 | 1011.3 |
| 20260507094332 | 9 | 279 | 3.2 | 9.7 | 0.00 | 0.18 | 0.00 | 79 | 1011.1 |
| 20260507093824 | 9 | 277 | 3.2 | 8.0 | 0.00 | 0.18 | 0.00 | 79 | 1011.0 |
| 20260507093336 | 10 | 290 | 4.8 | 6.4 | 0.00 | 0.18 | 0.00 | 79 | 1011.1 |
| 20260507092827 | 10 | 298 | 3.2 | 8.0 | 0.00 | 0.18 | 0.00 | 79 | 1010.9 |
| 20260507092318 | 10 | 304 | 4.8 | 12.9 | 0.00 | 0.18 | 0.00 | 79 | 1010.9 |
| 20260507091830 | 10 | 296 | 6.4 | 12.9 | 0.00 | 0.18 | 0.00 | 79 | 1010.9 |
| 20260507091342 | 10 | 287 | 4.8 | 12.9 | 0.00 | 0.18 | 0.00 | 78 | 1010.9 |
| 20260507090817 | 10 | 298 | 6.4 | 11.3 | 0.00 | 0.18 | 0.00 | 78 | 1011.1 |
| 20260507090329 | 10 | 284 | 3.2 | 8.0 | 0.00 | 0.18 | 0.00 | 78 | 1011.1 |
| 20260507085818 | 10 | 273 | 4.8 | 12.9 | 0.00 | 0.18 | 0.00 | 78 | 1011.2 |
| 20260507085331 | 10 | 273 | 8.0 | 12.9 | 0.00 | 0.18 | 0.00 | 78 | 1011.2 |
| 20260507084822 | 10 | 287 | 4.8 | 12.9 | 0.00 | 0.18 | 0.00 | 78 | 1011.1 |
| 20260507084314 | 10 | 281 | 9.7 | 12.9 | 0.00 | 0.18 | 0.00 | 78 | 1011.2 |
| 20260507083847 | 10 | 269 | 4.8 | 14.5 | 0.00 | 0.18 | 0.00 | 78 | 1011.1 |
| 20260507083318 | 10 | 281 | 6.4 | 17.7 | 0.00 | 0.18 | 0.00 | 78 | 1011.1 |
| 20260507082813 | 10 | 276 | 8.0 | 17.7 | 0.00 | 0.18 | 0.00 | 79 | 1011.1 |
| 20260507082346 | 10 | 275 | 6.4 | 12.9 | 0.00 | 0.18 | 0.00 | 80 | 1010.9 |
| 20260507081816 | 10 | 279 | 6.4 | 12.9 | 0.00 | 0.18 | 0.00 | 81 | 1011.1 |
| 20260507081347 | 10 | 302 | 4.8 | 8.0 | 0.00 | 0.18 | 0.00 | 82 | 1011.0 |
| 20260507080817 | 10 | 277 | 4.8 | 12.9 | 0.00 | 0.18 | 0.00 | 82 | 1011.1 |
| 20260507080329 | 10 | 284 | 6.4 | 12.9 | 0.00 | 0.18 | 0.00 | 83 | 1011.1 |
| 20260507075819 | 10 | 288 | 8.0 | 12.9 | 0.00 | 0.18 | 0.00 | 83 | 1010.9 |
| 20260507075330 | 10 | 279 | 6.4 | 14.5 | 0.00 | 0.18 | 0.00 | 83 | 1010.8 |
| 20260507074823 | 10 | 286 | 6.4 | 14.5 | 0.00 | 0.18 | 0.00 | 83 | 1010.7 |
| 20260507074315 | 10 | 267 | 4.8 | 14.5 | 0.00 | 0.18 | 0.00 | 83 | 1010.7 |
| 20260507073831 | 10 | 266 | 9.7 | 14.5 | 0.00 | 0.18 | 0.00 | 83 | 1010.7 |
| 20260507073344 | 10 | 256 | 4.8 | 12.9 | 0.00 | 0.18 | 0.00 | 83 | 1010.6 |
| 20260507072815 | 10 | 296 | 3.2 | 9.7 | 0.00 | 0.18 | 0.00 | 83 | 1010.7 |
| 20260507072328 | 10 | 270 | 3.2 | 6.4 | 0.00 | 0.18 | 0.00 | 83 | 1010.7 |
| 20260507071819 | 10 | 277 | 1.6 | 6.4 | 0.00 | 0.18 | 0.00 | 83 | 1010.6 |
| 20260507071331 | 10 | 297 | 3.2 | 6.4 | 0.00 | 0.18 | 0.00 | 83 | 1010.7 |
| 20260507070822 | 10 | 274 | 1.6 | 12.9 | 0.00 | 0.18 | 0.00 | 82 | 1010.6 |
| 20260507070314 | 10 | 274 | 4.8 | 12.9 | 0.00 | 0.18 | 0.00 | 82 | 1010.6 |
| 20260507065824 | 10 | 271 | 0.0 | 8.0 | 0.00 | 0.18 | 0.00 | 82 | 1010.6 |
| 20260507065319 | 10 | 268 | 4.8 | 12.9 | 0.00 | 0.18 | 0.00 | 82 | 1010.6 |
| 20260507064833 | 10 | 279 | 6.4 | 14.5 | 0.00 | 0.18 | 0.00 | 82 | 1010.7 |
| 20260507064324 | 10 | 269 | 8.0 | 14.5 | 0.00 | 0.18 | 0.00 | 82 | 1010.8 |
| 20260507063816 | 10 | 277 | 4.8 | 12.9 | 0.00 | 0.18 | 0.00 | 82 | 1010.9 |
| 20260507063349 | 10 | 265 | 6.4 | 17.7 | 0.00 | 0.18 | 0.00 | 82 | 1011.0 |
| 20260507062819 | 10 | 286 | 9.7 | 17.7 | 0.00 | 0.18 | 0.00 | 82 | 1011.1 |
| 20260507062331 | 10 | 281 | 4.8 | 9.7 | 0.00 | 0.18 | 0.00 | 82 | 1011.1 |
| 20260507061844 | 10 | 269 | 4.8 | 8.0 | 0.00 | 0.18 | 0.00 | 82 | 1011.1 |
| 20260507061316 | 10 | 276 | 4.8 | 11.3 | 0.00 | 0.18 | 0.00 | 82 | 1011.3 |
| 20260507060832 | 10 | 275 | 6.4 | 11.3 | 0.00 | 0.18 | 0.00 | 82 | 1011.4 |
| 20260507060323 | 10 | 284 | 4.8 | 8.0 | 0.00 | 0.18 | 0.00 | 81 | 1011.4 |
| 20260507055813 | 10 | 267 | 3.2 | 6.4 | 0.00 | 0.18 | 0.00 | 81 | 1011.5 |
| 20260507055325 | 10 | 283 | 3.2 | 14.5 | 0.00 | 0.18 | 0.00 | 81 | 1011.4 |
| 20260507054817 | 10 | 292 | 6.4 | 14.5 | 0.00 | 0.18 | 0.00 | 81 | 1011.4 |
| 20260507054329 | 10 | 302 | 8.0 | 16.1 | 0.00 | 0.18 | 0.00 | 81 | 1011.4 |
| 20260507053822 | 10 | 273 | 9.7 | 16.1 | 0.00 | 0.18 | 0.00 | 81 | 1011.5 |
| 20260507053333 | 10 | 299 | 6.4 | 16.1 | 0.00 | 0.18 | 0.00 | 81 | 1011.4 |
| 20260507052828 | 10 | 273 | 9.7 | 16.1 | 0.00 | 0.18 | 0.00 | 81 | 1011.3 |
| 20260507052320 | 10 | 293 | 4.8 | 16.1 | 0.00 | 0.18 | 0.00 | 81 | 1011.3 |
| 20260507051833 | 10 | 277 | 6.4 | 17.7 | 0.00 | 0.18 | 0.00 | 81 | 1011.2 |
| 20260507051324 | 10 | 281 | 8.0 | 19.3 | 0.00 | 0.18 | 0.00 | 81 | 1011.0 |
| 20260507050837 | 10 | 277 | 6.4 | 19.3 | 0.00 | 0.18 | 0.00 | 82 | 1011.0 |
| 20260507050328 | 10 | 290 | 8.0 | 16.1 | 0.00 | 0.18 | 0.00 | 82 | 1010.8 |
| 20260507045817 | 10 | 288 | 9.7 | 17.7 | 0.00 | 0.18 | 0.00 | 82 | 1010.7 |
| 20260507045329 | 10 | 290 | 11.3 | 17.7 | 0.00 | 0.18 | 0.00 | 82 | 1010.8 |
| 20260507044821 | 10 | 309 | 11.3 | 19.3 | 0.00 | 0.18 | 0.00 | 81 | 1010.9 |
| 20260507044317 | 10 | 265 | 14.5 | 19.3 | 0.00 | 0.18 | 0.00 | 81 | 1011.0 |
| 20260507043850 | 11 | 281 | 9.7 | 16.1 | 0.00 | 0.18 | 0.00 | 81 | 1011.1 |
| 20260507043341 | 11 | 285 | 8.0 | 16.1 | 0.00 | 0.18 | 0.00 | 81 | 1011.2 |
| 20260507042832 | 11 | 294 | 8.0 | 17.7 | 0.00 | 0.18 | 0.00 | 81 | 1011.0 |
| 20260507042323 | 11 | 280 | 9.7 | 17.7 | 0.00 | 0.18 | 0.00 | 82 | 1011.1 |
| 20260507041815 | 11 | 279 | 4.8 | 16.1 | 0.00 | 0.18 | 0.00 | 82 | 1011.0 |
| 20260507041326 | 11 | 280 | 8.0 | 17.7 | 0.00 | 0.18 | 0.00 | 82 | 1011.0 |
| 20260507040838 | 11 | 263 | 6.4 | 12.9 | 0.00 | 0.18 | 0.00 | 81 | 1010.9 |
| 20260507040329 | 11 | 273 | 4.8 | 16.1 | 0.00 | 0.18 | 0.00 | 81 | 1010.6 |
| 20260507035818 | 11 | 310 | 8.0 | 16.1 | 0.00 | 0.18 | 0.00 | 82 | 1010.9 |
| 20260507035314 | 11 | 270 | 9.7 | 19.3 | 0.00 | 0.18 | 0.00 | 83 | 1011.1 |
| 20260507034848 | 11 | 284 | 11.3 | 19.3 | 0.00 | 0.18 | 0.00 | 84 | 1011.2 |
| 20260507034318 | 11 | 302 | 6.4 | 14.5 | 0.00 | 0.18 | 0.18 | 86 | 1011.4 |
| 20260507033830 | 11 | 294 | 4.8 | 11.3 | 0.00 | 0.18 | 0.18 | 86 | 1011.4 |
| 20260507033321 | 11 | 294 | 1.6 | 8.0 | 0.00 | 0.18 | 0.18 | 87 | 1010.9 |
| 20260507032853 | 11 | 285 | 3.2 | 9.7 | 0.00 | 0.18 | 0.18 | 87 | 1010.7 |
| 20260507032324 | 11 | 267 | 4.8 | 9.7 | 0.00 | 0.18 | 0.18 | 86 | 1010.5 |
| 20260507031815 | 11 | 277 | 4.8 | 16.1 | 0.00 | 0.18 | 0.18 | 86 | 1010.8 |
| 20260507031327 | 11 | 296 | 9.7 | 16.1 | 0.00 | 0.18 | 0.18 | 86 | 1010.8 |
| 20260507030822 | 11 | 284 | 9.7 | 17.7 | 0.00 | 0.18 | 0.18 | 86 | 1011.0 |
| 20260507030314 | 11 | 313 | 12.9 | 17.7 | 0.00 | 0.18 | 0.18 | 85 | 1011.2 |
| 20260507025824 | 12 | 298 | 8.0 | 12.9 | 0.00 | 0.18 | 0.18 | 86 | 1011.2 |
| 20260507025316 | 12 | 287 | 6.4 | 20.9 | 0.00 | 0.18 | 0.18 | 85 | 1010.9 |
| 20260507024828 | 12 | 296 | 8.0 | 20.9 | 0.00 | 0.18 | 0.18 | 85 | 1010.6 |
| 20260507024321 | 12 | 281 | 6.4 | 14.5 | 0.00 | 0.18 | 0.18 | 85 | 1010.9 |
| 20260507023832 | 12 | 282 | 8.0 | 20.9 | 0.00 | 0.18 | 0.18 | 85 | 1011.0 |
| 20260507023323 | 12 | 15 | 6.4 | 20.9 | 0.00 | 0.18 | 0.18 | 84 | 1010.4 |
| 20260507022819 | 12 | 303 | 8.0 | 16.1 | 0.00 | 0.18 | 0.18 | 84 | 1010.5 |
| 20260507022351 | 12 | 308 | 9.7 | 17.7 | 0.00 | 0.18 | 0.18 | 84 | 1010.6 |
| 20260507021822 | 12 | 291 | 11.3 | 20.9 | 0.00 | 0.18 | 0.18 | 84 | 1010.6 |
| 20260507021313 | 12 | 274 | 12.9 | 20.9 | 0.00 | 0.18 | 0.18 | 84 | 1010.4 |
| 20260507020825 | 12 | 284 | 12.9 | 20.9 | 0.00 | 0.18 | 0.18 | 83 | 1010.2 |
| 20260507020337 | 12 | 273 | 9.7 | 24.1 | 0.00 | 0.18 | 0.18 | 83 | 1010.3 |
| 20260507015846 | 12 | 261 | 12.9 | 24.1 | 0.00 | 0.18 | 0.18 | 83 | 1010.2 |
| 20260507015316 | 12 | 281 | 14.5 | 22.5 | 0.00 | 0.18 | 0.18 | 83 | 1010.1 |
| 20260507014828 | 12 | 302 | 9.7 | 19.3 | 0.00 | 0.18 | 0.18 | 83 | 1010.1 |
| 20260507014321 | 12 | 286 | 11.3 | 19.3 | 0.00 | 0.18 | 0.18 | 83 | 1010.0 |
| 20260507013817 | 12 | 290 | 11.3 | 19.3 | 0.00 | 0.18 | 0.18 | 83 | 1010.0 |
| 20260507013350 | 12 | 279 | 6.4 | 16.1 | 0.00 | 0.18 | 0.18 | 83 | 1010.0 |
| 20260507012821 | 12 | 267 | 6.4 | 19.3 | 0.00 | 0.18 | 0.18 | 83 | 1010.0 |
| 20260507012313 | 13 | 301 | 9.7 | 19.3 | 0.00 | 0.18 | 0.18 | 83 | 1010.4 |
| 20260507011825 | 13 | 280 | 8.0 | 11.3 | 0.00 | 0.18 | 0.18 | 83 | 1010.6 |
| 20260507011316 | 13 | 289 | 3.2 | 12.9 | 0.00 | 0.18 | 0.18 | 83 | 1010.5 |
| 20260507010848 | 13 | 290 | 3.2 | 17.7 | 0.00 | 0.18 | 0.18 | 83 | 1010.2 |
| 20260507010319 | 13 | 288 | 8.0 | 20.9 | 0.00 | 0.18 | 0.18 | 82 | 1010.1 |
| 20260507005829 | 13 | 292 | 9.7 | 19.3 | 0.00 | 0.18 | 0.18 | 83 | 1010.1 |
| 20260507005320 | 13 | 300 | 14.5 | 19.3 | 0.00 | 0.18 | 0.18 | 82 | 1009.9 |
| 20260507004816 | 13 | 285 | 9.7 | 17.7 | 0.00 | 0.18 | 0.18 | 83 | 1009.8 |
| 20260507004328 | 13 | 284 | 12.9 | 19.3 | 0.00 | 0.18 | 0.18 | 82 | 1009.9 |
| 20260507003819 | 13 | 293 | 9.7 | 20.9 | 0.00 | 0.18 | 0.18 | 82 | 1010.1 |
| 20260507003331 | 13 | 265 | 12.9 | 20.9 | 0.00 | 0.18 | 0.18 | 82 | 1010.4 |
| 20260507002823 | 13 | 288 | 6.4 | 16.1 | 0.00 | 0.18 | 0.18 | 82 | 1010.3 |
| 20260507002315 | 13 | 281 | 9.7 | 14.5 | 0.00 | 0.18 | 0.18 | 81 | 1010.2 |
| 20260507001827 | 14 | 276 | 6.4 | 17.7 | 0.00 | 0.18 | 0.18 | 81 | 1010.0 |
| 20260507001319 | 14 | 297 | 8.0 | 17.7 | 0.00 | 0.18 | 0.18 | 81 | 1010.1 |
| 20260507000814 | 14 | 87 | 1.6 | 16.1 | 0.00 | 0.18 | 0.18 | 82 | 1010.1 |
| 20260507000328 | 14 | 258 | 4.8 | 16.1 | 0.00 | 0.18 | 0.18 | 82 | 1010.2 |
| 20260506235837 | 14 | 234 | 3.2 | 16.1 | 0.00 | 0.18 | 0.18 | 83 | 1010.2 |
| 20260506235329 | 14 | 300 | 4.8 | 9.7 | 0.00 | 0.18 | 0.18 | 83 | 1010.2 |
| 20260506234820 | 14 | 262 | 6.4 | 17.7 | 0.00 | 0.18 | 0.18 | 82 | 1009.9 |
| 20260506234332 | 14 | 310 | 9.7 | 16.1 | 0.00 | 0.18 | 0.18 | 83 | 1009.9 |
| 20260506233824 | 14 | 269 | 8.0 | 17.7 | 0.00 | 0.18 | 0.18 | 83 | 1009.8 |
| 20260506233315 | 14 | 279 | 11.3 | 19.3 | 0.00 | 0.18 | 0.18 | 83 | 1009.8 |
| 20260506232848 | 14 | 271 | 11.3 | 25.7 | 0.00 | 0.18 | 0.18 | 83 | 1009.6 |
| 20260506232340 | 15 | 292 | 14.5 | 25.7 | 0.00 | 0.18 | 0.18 | 83 | 1009.3 |
| 20260506231815 | 15 | 278 | 14.5 | 22.5 | 0.00 | 0.18 | 0.18 | 84 | 1009.2 |
| 20260506231327 | 15 | 284 | 17.7 | 24.1 | 0.00 | 0.18 | 0.18 | 84 | 1009.1 |
| 20260506230840 | 15 | 282 | 14.5 | 20.9 | 0.00 | 0.18 | 0.18 | 85 | 1009.0 |
| 20260506230331 | 15 | 285 | 12.9 | 19.3 | 0.00 | 0.18 | 0.18 | 86 | 1008.9 |
| 20260506225821 | 15 | 269 | 11.3 | 17.7 | 0.00 | 0.18 | 0.18 | 85 | 1009.0 |
| 20260506225313 | 15 | 309 | 8.0 | 20.9 | 0.00 | 0.18 | 0.18 | 85 | 1009.3 |
| 20260506224825 | 15 | 300 | 11.3 | 22.5 | 0.00 | 0.18 | 0.18 | 85 | 1009.2 |
| 20260506224317 | 15 | 312 | 14.5 | 22.5 | 0.00 | 0.18 | 0.18 | 85 | 1009.0 |
| 20260506223849 | 15 | 275 | 8.0 | 16.1 | 0.00 | 0.18 | 0.18 | 86 | 1008.9 |
| 20260506223324 | 15 | 284 | 6.4 | 14.5 | 0.00 | 0.18 | 0.18 | 87 | 1009.0 |
| 20260506222816 | 16 | 295 | 4.8 | 14.5 | 0.00 | 0.18 | 0.18 | 87 | 1009.0 |
| 20260506222328 | 16 | 288 | 4.8 | 14.5 | 0.00 | 0.18 | 0.18 | 88 | 1008.9 |
| 20260506221820 | 16 | 298 | 6.4 | 17.7 | 0.00 | 0.18 | 0.18 | 87 | 1008.6 |
| 20260506221332 | 16 | 268 | 11.3 | 17.7 | 0.00 | 0.18 | 0.18 | 86 | 1008.8 |
| 20260506220824 | 16 | 291 | 9.7 | 17.7 | 0.00 | 0.18 | 0.18 | 85 | 1008.8 |
| 20260506220316 | 16 | 286 | 8.0 | 14.5 | 0.00 | 0.18 | 0.18 | 86 | 1008.9 |
| 20260506215827 | 16 | 299 | 8.0 | 16.1 | 0.00 | 0.18 | 0.18 | 86 | 1008.8 |
| 20260506215322 | 16 | 313 | 8.0 | 17.7 | 0.03 | 0.18 | 0.18 | 86 | 1008.6 |
| 20260506214835 | 16 | 293 | 11.3 | 17.7 | 0.03 | 0.18 | 0.18 | 85 | 1008.3 |
| 20260506214347 | 17 | 298 | 9.7 | 16.1 | 0.03 | 0.18 | 0.18 | 86 | 1008.1 |
| 20260506213818 | 17 | 278 | 9.7 | 17.7 | 0.03 | 0.18 | 0.18 | 85 | 1008.1 |
| 20260506213330 | 17 | 289 | 9.7 | 16.1 | 0.03 | 0.18 | 0.18 | 85 | 1008.2 |
| 20260506212822 | 17 | 284 | 11.3 | 16.1 | 0.03 | 0.18 | 0.18 | 86 | 1008.0 |
| 20260506212335 | 17 | 290 | 9.7 | 16.1 | 0.03 | 0.18 | 0.18 | 86 | 1008.0 |
| 20260506211826 | 17 | 293 | 6.4 | 14.5 | 0.03 | 0.18 | 0.18 | 86 | 1008.0 |
| 20260506211317 | 17 | 295 | 8.0 | 17.7 | 0.03 | 0.18 | 0.18 | 86 | 1008.0 |
| 20260506210851 | 17 | 279 | 9.7 | 27.4 | 0.03 | 0.18 | 0.18 | 85 | 1007.8 |
| 20260506210321 | 17 | 300 | 16.1 | 24.1 | 0.03 | 0.18 | 0.18 | 84 | 1007.9 |
| 20260506205815 | 18 | 269 | 14.5 | 22.5 | 0.03 | 0.18 | 0.18 | 81 | 1007.8 |
| 20260506205328 | 19 | 307 | 8.0 | 14.5 | 0.00 | 0.15 | 0.15 | 78 | 1007.8 |
| 20260506204821 | 19 | 292 | 4.8 | 8.0 | 0.00 | 0.15 | 0.15 | 79 | 1007.5 |
| 20260506204333 | 19 | 288 | 3.2 | 6.4 | 0.00 | 0.15 | 0.15 | 79 | 1007.4 |
| 20260506203845 | 20 | 290 | 1.6 | 4.8 | 0.00 | 0.15 | 0.15 | 78 | 1007.4 |
| 20260506203316 | 20 | 310 | 1.6 | 4.8 | 0.00 | 0.15 | 0.15 | 77 | 1007.5 |
| 20260506202827 | 20 | 296 | 0.0 | 8.0 | 0.00 | 0.15 | 0.15 | 78 | 1007.4 |
| 20260506202339 | 20 | 285 | 0.0 | 8.0 | 0.00 | 0.15 | 0.15 | 78 | 1007.3 |
| 20260506201830 | 20 | 307 | 3.2 | 6.4 | 0.00 | 0.15 | 0.15 | 77 | 1007.3 |
| 20260506201342 | 20 | 306 | 3.2 | 6.4 | 0.00 | 0.15 | 0.15 | 79 | 1007.3 |
| 20260506200817 | 19 | 144 | 1.6 | 4.8 | 0.00 | 0.15 | 0.15 | 82 | 1007.3 |
| 20260506200329 | 19 | 134 | 0.0 | 3.2 | 0.00 | 0.15 | 0.15 | 81 | 1007.4 |
| 20260506195820 | 18 | 153 | 0.0 | 3.2 | 0.00 | 0.15 | 0.15 | 82 | 1007.3 |
| 20260506195313 | 18 | 153 | 0.0 | 3.2 | 0.00 | 0.15 | 0.15 | 84 | 1007.3 |
| 20260506194825 | 18 | 153 | 0.0 | 3.2 | 0.00 | 0.15 | 0.15 | 84 | 1007.1 |
| 20260506194316 | 18 | 153 | 1.6 | 4.8 | 0.00 | 0.15 | 0.15 | 84 | 1007.1 |
| 20260506193829 | 18 | 153 | 1.6 | 4.8 | 0.00 | 0.15 | 0.15 | 84 | 1007.2 |
| 20260506193321 | 18 | 150 | 3.2 | 4.8 | 0.00 | 0.15 | 0.15 | 84 | 1007.3 |
| 20260506192817 | 18 | 148 | 0.0 | 4.8 | 0.00 | 0.15 | 0.15 | 84 | 1007.1 |
| 20260506192330 | 18 | 160 | 1.6 | 4.8 | 0.00 | 0.15 | 0.15 | 83 | 1007.4 |
| 20260506191822 | 18 | 160 | 0.0 | 4.8 | 0.00 | 0.15 | 0.15 | 84 | 1007.3 |
| 20260506191313 | 18 | 158 | 3.2 | 6.4 | 0.00 | 0.15 | 0.15 | 83 | 1007.4 |
| 20260506190826 | 18 | 302 | 0.0 | 0.0 | 0.00 | 0.15 | 0.15 | 83 | 1007.5 |
| 20260506190317 | 18 | 302 | 0.0 | 3.2 | 0.00 | 0.15 | 0.15 | 83 | 1007.5 |
| 20260506185848 | 18 | 302 | 0.0 | 3.2 | 0.00 | 0.15 | 0.15 | 83 | 1007.5 |